La Bouquetin 4/02/2012 21,6 Km
Place Nom Prenom Temps Km/h Place. Cat. Cat.
1 CHARLIER JEAN FRANCOIS 117 1:39:23 13,0 1 S
2 PIETTE DAMIEN 100 1:41:06 12,8 2 S
3 GRENIER LAURENT 102 1:42:17 12,7 3 S
4 RECKER MARCEL 105 1:42:54 12,6 1 V2
5 HERBET HENRI 36 1:44:42 12,4 2 V2
6 KEMPENAIRE JULIEN 128 1:46:20 12,2 4 S
7 FAYMONVILLE JEAN-MARC 29 1:47:06 12,1 3 V2
8 DOSTRICHE NICO 113 1:47:06 12,1 5 S
9 LEJEUNE BERNI 43 1:47:06 12,1 1 V1
10 WIRTGEN VINCENT 137 1:47:59 12,0 6 S
11 NEUTELEERS ERIC 155 1:48:40 11,9 4 V2
12 BRASSEUR GREGORY 145 1:49:10 11,9 7 S
13 GODFROID JAN-ERIC 138 1:49:46 11,8 8 S
14 LAMBOTTE BENOIT 126 1:49:54 11,8 9 S
15 COMPEYRON YOANN 108 1:52:05 11,6 10 S
16 COLSON STEPHANE 109 1:52:10 11,6 2 V1
17 TASSIAUX VINCENT 64 1:52:11 11,6 3 V1
18 BUCHE JEAN-PASCAL 110 1:52:46 11,5 4 V1
19 LANNERS LAURENT 40 1:53:32 11,4 11 S
20 JANDRAIN FRANCOIS 172 1:54:21 11,3 12 S
21 CASTEELS NICOLAS 9 1:54:49 11,3 13 S
22 LOMRÉ FRED 48 1:54:50 11,3 14 S
23 EYEN PIERRE 160 1:54:52 11,3 5 V1
24 DUYSENS ARNAUD 25 1:56:12 11,2 15 S
25 LESCAUT VINCENT 44 1:58:09 11,0 16 S
26 HAOUCHINE HASSN 97 1:58:26 10,9 6 V1
27 MALMENDIER YVES 55 2:01:27 10,7 7 V1
28 VANDERMEULEN SEVERINE 73 2:01:28 10,7 1 D
29 DELVA JANICK 159 2:01:28 10,7 1 A1
30 DEGRAVE JONATHAN 114 2:01:36 10,7 17 S
31 DUCAMP JACQUES 140 2:02:21 10,6 8 V1
32 FRANSSEN XAVIER 179 2:03:19 10,5 18 S
33 VANDEKERKOVE ALAIN 72 2:05:19 10,3 9 V1
34 CHARLES CYRILLE 563 2:05:31 10,3 19 S
35 DAVID GERARD 124 2:06:26 10,2 10 V1
36 CHARLIER BENOIT 92 2:07:46 10,1 11 V1
37 BLOCKX STEPHANIE 127 2:09:06 10,0 2 D
38 DELNOY OLIVIER 19 2:09:22 10,0 12 V1
39 GAYET BORIS 176 2:10:23 9,9 20 S
40 COMEL FREDERIC 104 2:10:55 9,9 13 V1
41 HARDY PATRICK 120 2:11:31 9,9 5 V2
42 LEJEUNE CHRISTOPHE 131 2:11:55 9,8 14 V1
43 FUDVOYE THIBAUT 103 2:11:56 9,8 21 S
44 AGUZZI RENE 90 2:11:58 9,8 15 V1
45 DEFECHEREUX CÉDRIC 15 2:12:03 9,8 22 S
46 DEFECHEREUX FABIAN 16 2:12:04 9,8 16 V1
47 REGNIER DIDIER 61 2:12:10 9,8 17 V1
48 LEHANCE PASCAL 162 2:12:11 9,8 18 V1
49 VANDENDRIESCCHE MICHAEL 125 2:12:29 9,8 23 S
50 DUMONT DOMINIQUE 24 2:12:49 9,8 6 V2
51 LENAERTS LUC 93 2:12:57 9,7 19 V1
52 EVRARD MARC 151 2:13:57 9,7 20 V1
53 NOKIN XAVIER 174 2:15:08 9,6 21 V1
54 MARIEN FRANK 148 2:15:45 9,5 22 V1
55 WAERTS ALAIN 112 2:16:04 9,5 7 V2
56 DUBOIS PHILIPPE 23 2:16:05 9,5 23 V1
57 SCHOONBROODT JEAN-PIERRE 94 2:17:03 9,5 24 V1
58 CECCOTTI ALEXANDRE 135 2:17:49 9,4 24 S
59 LAMBERT PHILIPPE 39 2:18:39 9,3 25 V1
60 CENNE YVES 166 2:18:47 9,3 26 V1
61 LAVAL CHARLES 41 2:18:50 9,3 27 V1
62 ALVAREZ MARC 136 2:18:56 9,3 8 V2
63 DEFLANDRE JEAN-MARIE 17 2:20:01 9,3 28 V1
64 VERHAEGHE KERVAN 146 2:20:25 9,2 25 S
65 HILDERSON LUC 98 2:21:29 9,2 1 V3
66 JACQMIN JONAS 147 2:21:36 9,2 26 S
67 DEWEZ YVES 119 2:21:48 9,1 29 V1
68 NEUVILLE ERIC 56 2:22:24 9,1 27 S
69 EUBELEN FRANCIS 101 2:22:25 9,1 30 V1
70 LECHANTEUR ERIC 161 2:23:17 9,0 9 V2
71 JULIN PASCAL 37 2:23:48 9,0 28 S
72 SCALCO THIERRY 178 2:23:58 9,0 29 S
73 DEFECHEREUX PASCAL 142 2:25:17 8,9 30 S
74 BEYER BRUNO 81 2:25:18 8,9 31 V1
75 MEYS CLAUDE 82 2:25:19 8,9 32 V1
76 PIRLOT AXELLE 58 2:25:22 8,9 2 A1
77 PANZA JEAN-FRANCOIS 118 2:25:24 8,9 31 S
78 MARVILLE STEPHANE 86 2:26:21 8,9 32 S
79 DELVENNE MARC 141 2:26:55 8,8 33 V1
80 INCONNU INCONNU 67 2:27:04 8,8 34 V1
81 BOGAR TONY 4 2:27:24 8,8 35 V1
82 VINCENT DOMINIQUE 74 2:27:33 8,8 1 A3
83 DENDAL DIDIER 87 2:27:37 8,8 36 V1
84 ZNIDARSIC JOELLE 139 2:27:43 8,8 1 A2
85 PEREZZANI SERGIO 57 2:27:45 8,8 10 V2
86 BROSET OLIVIER 91 2:27:57 8,8 37 V1
87 ZAVA ALLISON 150 2:28:42 8,7 3 D
88 ARCHAMBEAU ROGER 115 2:30:24 8,6 2 V3
89 VAN HEES THIERRY 177 2:30:25 8,6 33 S
90 BRENNECKE DAVID 8 2:30:37 8,6 34 S
91 DEWULF JOELLE 144 2:30:39 8,6 3 A1
92 KENLER PHILIPPE 38 2:30:41 8,6 11 V2
93 DALEM PIERRE-YVES 129 2:30:43 8,6 38 V1
94 LEYENS MARIE-ANNE 45 2:30:54 8,6 2 A3
95 ROMEDENNE FREDERIC 77 2:31:41 8,5 39 V1
96 SERVAIS NATHALIE 63 2:31:44 8,5 2 A2
97 LHERMITTE MICHEL 46 2:31:45 8,5 40 V1
98 THESIAS JONATHAN 111 2:32:23 8,5 35 S
99 SIMON BERNARD 134 2:34:53 8,4 41 V1
100 TAENS CHRISTOPHE 132 2:34:54 8,4 36 S
101 EVELETTE MARC 133 2:34:54 8,4 42 V1
102 HUBIN FRANCOIS 175 2:35:15 8,3 37 S
103 PIRET MARIE 163 2:35:50 8,3 4 D
104 PIRET GAUTHIER 164 2:35:51 8,3 38 S
105 KAZMIERCZAK ERIC 173 2:36:06 8,3 12 V2
106 HERTAY JEAN-PAUL 96 2:36:20 8,3 13 V2
107 GILSON RAYMOND 32 2:36:21 8,3 14 V2
108 POMES JEAN-PAUL 89 2:36:23 8,3 3 V3
109 GILLES CHANTAL 107 2:36:37 8,3 3 A2
110 COBBEN SYLVAIN 121 2:37:00 8,3 39 S
111 BRASSEUR ROBERT 6 2:37:33 8,2 15 V2
112 BASTIN PAUL 116 2:39:37 8,1 4 V3
113 BERNARDI PHILIPPE 167 2:41:04 8,0 43 V1
114 VAN HECKE MICHEL 71 2:41:17 8,0 44 V1
115 TOMASELLI JOHN 69 2:41:18 8,0 40 S
116 MATHIEU MURIELLE 123 2:42:54 8,0 4 A1
117 REMACLE JOSEPH 168 2:42:56 8,0 16 V2
118 COLLARD ALAIN 157 2:42:58 8,0 17 V2
119 ORBAN MICHEL 143 2:43:14 7,9 18 V2
120 ELIAS THIERRY 106 2:45:09 7,8 19 V2
121 CHARLES MARC 11 2:49:26 7,6 20 V2
122 TITTELBACH MICHEL 68 2:51:51 7,5 21 V2
123 BOYDENS WIM 5 2:52:17 7,5 41 S
124 FALISE OLIVIER 122 2:53:45 7,5 42 S
125 JORDANT BENOIT 153 2:55:16 7,4 22 V2
126 MARTIN MARC 99 2:55:18 7,4 23 V2
127 PAISSE GREGORY 78 2:55:35 7,4 43 S
128 DUYSENS JEANNOT 26 2:56:34 7,3 24 V2
129 LEVAUX THIERRY 169 2:57:37 7,3 44 S
130 WERY BENOIT 170 2:57:39 7,3 45 S
131 CLOSJANS RAPHAEL 12 2:58:01 7,3 46 S
132 KOCKLENBERG FABIENNE 156 3:01:02 7,2 5 A1
133 RENIER ANNE 152 3:01:02 7,2 6 A1
134 GAUTHY ISABELLE 154 3:01:02 7,2 7 A1
135 REULX LEON 62 3:08:26 6,9 25 V2
136 GILSON ANTOINE 33 3:08:27 6,9 47 S
137 DEFAYS POL 14 3:13:50 6,7 1 V5
138 RAMAEKERS ISABELLE 60 3:28:56 6,2 4 A2
139 NONDONFAZ GENEVIEVE 158 3:28:56 6,2 5 A2
140 LOPEZ CELSO 49 3:28:56 6,2 26 V2
141 SACCO ALFONSO 171 3:31:14 6,1 27 V2